Temperature
15 16 15 14 14 14 14 15 15 16 17 18 18 16 14 13 12 12 11 11 11 11 11 11 11 11 11 11 11 11 11 11 11 11 10 10 9 8 7 6 4 2 1 0
13 14 14 13 13 14 14 15 15 15 15 16 14 14 13 13 12 11 11 11 10 10 10 10 10 9 9 10 10 10 10 10 10 10 9 9 9 8 7 5 4 2 1 -0
13 13 12 12 14 14 14 14 14 15 16 14 13 13 12 12 11 11 10 10 9 9 9 8 8 8 8 9 9 9 9 9 9 9 8 8 8 7 6 5 3 2 1 -1
11 11 10 15 15 14 14 14 14 14 13 13 12 11 11 11 10 10 9 9 8 8 8 7 7 8 8 8 8 8 8 8 8 8 7 7 7 6 5 3 2 1 -0 -1
10 11 13 14 14 12 12 13 13 13 12 12 11 11 12 11 9 9 8 8 7 7 7 7 7 7 7 7 7 7 7 7 7 6 6 6 5 5 4 2 1 -0 -1 -2
9 8 11 15 12 10 12 13 12 11 11 11 10 10 11 9 8 8 7 7 6 6 6 6 6 6 6 6 6 6 5 5 5 5 5 5 4 4 3 1 -0 -2 -3 -3
9 9 12 13 10 10 12 13 11 11 10 10 10 9 9 8 7 7 6 6 6 6 6 6 6 5 5 5 4 4 4 4 4 4 4 4 3 3 2 1 -1 -2 -4 -4
9 8 10 12 10 12 13 12 10 10 9 9 8 8 7 6 6 6 6 6 5 5 5 5 5 5 4 3 3 3 3 3 3 3 3 3 2 2 1 -1 -2 -3 -5 -5
10 12 13 10 11 11 10 10 9 9 8 7 7 6 6 5 5 5 5 5 5 4 4 5 4 3 3 3 2 2 2 2 2 2 2 1 1 1 -0 -2 -3 -4 -5 -6
10 11 11 11 10 10 9 9 8 7 7 6 6 5 5 5 5 4 5 4 4 4 3 4 3 3 2 2 1 1 1 1 1 1 1 1 0 -0 -1 -2 -3 -4 -5 -6
9 11 10 10 9 9 8 7 7 6 6 5 5 4 4 4 4 4 4 4 3 3 3 2 2 2 2 1 0 0 -0 -0 -0 -0 -0 -0 -0 -1 -1 -2 -3 -4 -5 -6
10 11 11 10 9 8 7 6 5 5 5 4 4 4 3 3 4 4 3 3 3 3 2 2 1 1 1 0 -0 -1 -1 -1 -1 -1 -1 -1 -1 -1 -1 -2 -3 -4 -6 -7
9 8 8 7 6 6 5 5 4 4 4 4 4 3 3 3 3 3 3 2 2 1 1 1 0 1 0 -1 -1 -1 -1 -2 -2 -2 -2 -2 -2 -3 -3 -3 -4 -5 -6 -6
6 6 6 5 5 4 4 4 3 3 3 3 3 3 3 2 2 2 2 2 1 1 1 0 -0 -0 -1 -1 -1 -2 -2 -2 -2 -2 -2 -2 -3 -3 -4 -4 -5 -6 -6 -6
5 5 4 4 3 3 3 3 3 3 3 3 3 2 2 2 2 2 2 1 0 -0 -0 -1 -1 -1 -1 -1 -2 -2 -2 -2 -2 -3 -3 -3 -3 -3 -4 -5 -5 -6 -7 -7
3 3 3 3 3 3 2 2 2 2 2 2 2 2 1 1 1 1 1 0 -1 -1 -1 -1 -1 -1 -1 -2 -2 -2 -2 -3 -3 -3 -3 -3 -3 -4 -4 -5 -6 -7 -7 -7
2 2 2 2 2 2 2 2 2 1 1 1 1 1 1 0 -0 -0 -0 -1 -1 -1 -1 -1 -2 -2 -2 -2 -3 -3 -3 -3 -3 -3 -3 -4 -4 -4 -5 -5 -6 -7 -7 -7
3 2 2 2 2 2 1 1 1 1 1 1 0 -0 -1 -1 -1 -1 -1 -1 -1 -1 -1 -1 -2 -2 -2 -3 -3 -3 -3 -3 -3 -4 -4 -4 -5 -5 -5 -6 -6 -7 -7 -8
2 2 2 1 1 1 1 1 1 0 0 -0 -1 -1 -1 -1 -2 -2 -2 -2 -2 -2 -2 -2 -2 -3 -3 -3 -3 -3 -3 -4 -4 -4 -4 -5 -5 -5 -6 -6 -6 -7 -7 -8
2 2 1 1 1 1 0 0 -0 -0 -1 -1 -1 -2 -2 -2 -2 -2 -2 -3 -2 -3 -3 -3 -3 -3 -3 -3 -3 -4 -4 -4 -4 -4 -4 -5 -5 -5 -6 -6 -7 -7 -7 -8
1 1 1 1 0 0 -0 -1 -1 -1 -1 -2 -2 -2 -2 -2 -2 -3 -3 -4 -3 -3 -3 -3 -3 -3 -3 -4 -4 -4 -4 -4 -4 -4 -5 -5 -5 -6 -6 -6 -7 -7 -7 -8
1 0 0 -0 -0 -1 -1 -1 -1 -1 -2 -2 -2 -2 -3 -3 -3 -4 -4 -4 -4 -4 -4 -4 -3 -3 -4 -4 -4 -4 -4 -4 -4 -5 -5 -5 -6 -6 -6 -7 -7 -7 -7 -8
0 -0 -0 -1 -1 -1 -1 -1 -1 -2 -2 -2 -3 -3 -3 -4 -4 -5 -5 -4 -4 -4 -4 -4 -4 -4 -4 -4 -4 -4 -4 -4 -4 -5 -5 -6 -6 -6 -7 -7 -7 -7 -7 -7
-0 -1 -1 -1 -1 -2 -2 -2 -2 -2 -2 -3 -3 -3 -4 -5 -5 -5 -5 -5 -5 -4 -4 -4 -4 -3 -4 -4 -4 -4 -4 -4 -5 -5 -5 -6 -6 -7 -7 -7 -7 -7 -7 -7
-1 -1 -1 -2 -2 -2 -2 -2 -2 -3 -3 -4 -4 -4 -5 -5 -6 -5 -5 -5 -5 -4 -4 -4 -4 -4 -4 -4 -4 -4 -4 -5 -5 -5 -6 -6 -6 -7 -7 -7 -7 -7 -7 -7
-1 -2 -2 -2 -2 -2 -2 -3 -4 -4 -4 -5 -5 -5 -5 -5 -6 -6 -5 -5 -5 -4 -4 -4 -4 -4 -4 -4 -4 -4 -4 -5 -5 -6 -6 -6 -7 -7 -7 -7 -7 -7 -7 -7
-2 -2 -2 -2 -2 -2 -3 -4 -4 -5 -5 -5 -6 -6 -6 -6 -6 -6 -6 -5 -5 -5 -4 -4 -4 -4 -4 -4 -4 -4 -4 -5 -5 -6 -6 -7 -7 -7 -7 -7 -7 -7 -7 -6
Wind_Speed
18 19 17 18 21 20 21 23 24 31 31 31 24 16 13 11 10 10 12 14 15 16 17 17 17 15 14 13 11 9 10 11 13 13 13 14 15 15 16 18 19 19 20 20
16 18 18 23 26 29 28 27 29 31 30 18 9 9 11 12 11 11 14 17 18 18 18 17 17 16 15 14 13 11 11 12 12 12 12 13 14 15 16 17 18 19 20 21
15 11 11 16 19 21 16 16 16 18 13 7 11 13 15 14 12 12 16 18 19 18 17 17 16 15 15 15 14 12 12 12 12 12 13 13 14 15 16 17 18 19 19 21
9 8 12 10 3 8 13 15 16 15 12 12 13 14 14 12 11 15 19 19 18 17 17 16 16 14 14 14 13 12 12 12 12 11 13 13 14 15 16 15 16 17 18 20
5 10 15 12 7 4 6 9 5 3 7 12 14 15 13 8 12 17 18 17 16 15 16 16 15 14 12 13 12 11 12 13 12 12 13 13 14 15 15 14 16 16 17 19
7 6 9 8 2 0 3 6 2 5 13 17 17 17 16 16 19 19 16 15 14 15 15 16 15 14 14 15 15 14 14 15 14 13 14 14 14 14 13 14 15 15 16 18
10 10 11 7 1 2 5 5 5 13 17 18 17 17 19 20 18 16 15 15 15 14 14 15 16 15 15 16 16 16 16 16 16 15 14 14 14 13 12 12 13 15 16 16
7 9 11 4 5 5 8 11 15 19 19 19 20 20 19 17 15 14 14 15 15 15 16 16 15 15 17 17 17 17 17 17 17 15 13 11 13 12 12 12 13 14 14 15
9 11 8 4 8 11 13 18 20 18 18 19 19 19 16 14 14 13 14 15 15 16 17 17 16 16 18 18 17 17 17 17 17 16 13 12 12 12 11 11 11 11 12 13
13 17 19 19 19 19 19 19 19 19 18 17 17 16 15 13 12 13 15 15 15 17 18 18 18 17 18 18 17 17 17 17 16 15 14 12 10 10 10 10 11 11 12 12
21 22 22 18 16 17 18 19 20 18 15 14 13 12 11 11 12 14 15 15 15 16 18 20 19 19 18 18 17 17 17 16 15 13 13 12 11 10 11 12 12 12 12 12
23 23 22 25 21 21 20 18 17 15 13 10 8 9 10 12 13 15 16 16 16 17 19 20 20 20 19 17 16 16 15 15 13 12 11 11 11 11 14 16 19 21 21 17
27 26 23 24 20 17 16 14 12 9 7 8 8 10 12 13 14 15 16 17 18 19 20 20 20 20 19 17 16 16 16 15 13 12 12 11 10 11 11 11 16 20 22 23
19 20 22 20 17 14 11 9 7 6 7 8 9 11 13 15 16 17 19 19 20 20 20 20 20 20 19 17 15 16 16 15 14 12 12 11 11 10 10 10 10 9 13 19
15 15 17 15 13 10 7 5 6 7 9 10 11 13 15 16 18 19 20 19 19 19 20 20 20 20 18 16 16 16 15 13 12 12 12 11 11 10 10 10 10 9 8 10
16 14 12 10 9 8 6 6 7 10 11 13 15 16 17 18 19 20 20 19 19 21 20 20 20 19 17 16 16 14 13 17 16 13 12 11 10 9 9 9 9 9 8 8
10 8 7 7 7 6 7 8 9 12 14 16 17 18 18 19 20 21 20 19 19 19 20 19 19 17 16 16 16 13 13 14 17 14 11 10 10 9 9 9 8 8 8 8
5 6 7 7 7 8 10 11 12 14 16 17 18 19 20 21 22 22 21 20 20 20 19 18 16 17 17 17 15 13 13 12 11 11 11 10 10 8 8 8 8 9 7 7
4 5 6 7 8 9 11 13 15 16 16 17 19 20 21 20 20 20 20 20 20 20 16 15 21 20 18 17 17 12 13 13 12 11 10 12 11 8 7 7 7 7 7 6
6 7 9 10 11 11 13 15 17 18 18 18 19 20 20 19 18 19 19 18 16 14 15 18 19 17 16 16 17 12 13 13 12 11 10 9 8 8 7 7 7 6 6 6
9 10 11 13 15 15 16 18 18 20 19 18 18 18 19 19 18 17 17 18 16 16 17 21 16 14 15 16 18 12 12 12 11 11 10 9 8 7 6 6 6 6 6 6
11 13 15 16 17 18 17 17 18 19 19 18 17 16 17 18 18 17 16 15 16 19 16 15 14 17 20 21 13 12 12 11 10 9 9 8 7 6 6 5 5 5 6 6
14 15 17 18 18 18 18 17 17 16 17 18 18 18 18 18 15 15 16 14 15 21 18 15 19 25 27 17 11 11 11 10 9 9 8 7 6 5 5 5 5 5 5 6
16 16 15 15 15 16 17 17 14 14 15 16 16 15 16 15 15 14 14 19 22 23 17 19 25 26 23 12 11 10 10 9 9 8 7 6 4 4 4 4 4 4 5 6
14 13 13 14 14 14 15 14 14 14 15 14 16 16 14 13 14 15 16 17 21 22 16 19 23 22 16 11 10 10 9 8 8 7 5 4 3 3 3 3 4 4 5 5
13 14 13 13 13 13 12 12 13 13 14 15 15 14 14 13 15 15 14 16 19 20 16 13 14 15 11 11 10 9 9 8 7 5 4 3 2 2 2 3 4 4 4 4
13 12 11 11 11 11 11 11 13 14 14 14 16 16 15 15 14 15 16 15 14 14 13 12 12 11 11 10 9 8 7 6 5 3 2 2 1 2 2 3 3 4 4 4
Wind_Direction
261 272 276 270 268 258 248 255 265 274 280 289 308 324 331 335 340 341 346 346 342 338 334 332 330 329 328 321 315 302 284 272 268 267 262 255 249 244 238 234 231 227 225 222
269 270 273 271 266 263 261 260 261 269 277 295 326 341 337 336 334 335 337 336 333 329 327 326 325 325 323 319 316 306 291 283 281 276 268 259 252 245 239 235 231 227 225 223
281 295 290 270 257 254 247 245 253 267 287 338 339 336 330 325 323 326 328 328 325 322 321 320 319 320 317 314 313 305 294 288 285 280 272 265 257 248 242 237 232 228 226 223
284 286 253 264 281 259 261 263 264 270 291 315 325 321 310 307 318 324 325 322 319 318 316 314 313 315 312 310 308 302 296 291 286 281 277 272 262 253 247 241 235 231 228 226
252 266 275 280 280 255 254 277 279 295 329 332 329 314 311 324 324 319 316 315 313 313 311 310 309 312 310 305 304 297 294 296 295 286 281 276 267 259 251 244 239 234 230 228
227 246 267 288 109 64 268 272 113 340 331 330 329 318 317 325 318 314 313 312 313 313 310 309 313 318 311 308 309 308 308 305 302 295 285 278 273 266 256 246 242 237 235 230
232 244 267 278 192 207 250 312 346 323 321 318 312 304 308 313 310 308 308 310 313 313 311 311 318 317 309 308 309 311 310 306 302 296 289 282 278 268 258 248 243 238 237 233
219 226 252 200 173 225 296 318 311 311 313 311 307 306 308 309 307 306 307 310 315 315 312 313 314 311 308 308 311 312 308 304 301 298 293 284 277 270 258 248 243 240 238 236
222 238 270 212 248 288 304 302 307 308 309 307 304 305 306 304 304 306 309 312 314 313 310 310 312 312 307 308 311 310 306 303 302 301 295 286 277 270 260 247 242 240 236 235
262 262 269 276 281 286 292 298 305 305 304 301 298 299 301 303 305 308 310 313 314 312 310 311 312 310 306 307 309 306 304 303 303 302 298 291 277 266 257 248 242 238 236 235
263 274 282 278 282 292 300 303 303 302 298 295 294 296 301 304 306 307 308 310 311 309 306 306 309 309 308 309 310 307 305 303 303 299 295 292 279 265 258 249 243 238 238 236
266 278 287 293 303 305 303 302 303 301 299 297 295 297 302 302 304 305 306 307 307 305 306 309 310 309 309 310 310 307 305 304 303 301 297 291 287 280 259 252 253 247 243 241
269 283 290 296 301 302 299 300 300 294 291 297 301 301 301 300 300 301 301 303 307 308 307 308 309 308 309 312 310 305 301 301 300 297 294 291 286 282 283 270 253 250 246 244
280 289 291 295 300 303 300 298 292 288 290 293 296 300 301 301 302 303 304 307 308 307 306 307 308 308 310 311 307 303 301 298 296 294 292 289 284 279 274 274 274 261 249 245
286 288 289 296 298 298 297 291 293 297 304 307 307 304 304 304 304 304 305 306 307 306 307 309 309 308 311 310 305 302 300 298 297 295 291 286 282 277 270 266 264 264 258 248
298 294 291 290 293 298 294 296 299 305 310 309 308 307 306 303 302 302 304 307 309 308 308 307 305 305 309 307 305 302 299 296 298 296 293 288 282 274 268 263 259 255 250 244
292 294 301 303 302 301 296 297 299 302 304 304 305 306 305 305 305 306 308 310 307 303 302 301 301 304 306 305 304 302 300 299 299 298 294 289 283 275 268 261 254 250 245 237
284 285 291 291 294 299 302 303 301 300 300 301 303 304 304 305 306 307 307 308 306 303 301 302 304 307 306 304 303 301 299 298 297 295 292 288 282 274 267 258 250 246 242 234
333 322 316 307 303 300 299 301 302 301 300 301 302 303 303 302 301 302 305 306 305 304 305 306 308 309 305 304 305 301 299 297 296 294 291 289 284 272 262 253 245 238 231 221
326 320 313 306 301 294 295 298 301 301 302 304 302 301 302 303 303 304 304 301 295 296 301 305 307 305 304 304 305 302 299 297 296 296 293 288 281 272 260 247 238 230 220 214
304 304 301 300 301 300 299 300 302 302 303 302 300 299 299 301 302 302 302 302 302 305 308 308 308 305 306 308 307 303 299 298 297 297 295 290 282 272 255 239 228 219 213 207
289 294 297 299 300 301 302 302 301 300 300 300 299 298 299 301 302 301 295 294 301 306 309 307 305 305 311 311 307 303 300 298 297 296 293 288 281 270 250 232 222 213 206 201
291 293 296 297 299 300 301 299 297 297 298 299 300 300 300 301 302 301 302 304 307 307 310 303 304 309 312 313 305 303 301 299 298 297 294 288 281 265 244 225 214 206 198 194
291 293 293 293 295 296 296 296 295 295 295 295 293 292 295 299 300 298 297 303 307 307 306 302 306 311 314 311 305 304 303 301 299 296 293 286 276 255 230 212 203 197 192 187
284 284 286 290 292 293 294 296 296 296 297 299 299 300 299 297 298 301 303 304 306 307 306 306 309 312 313 306 305 304 303 301 299 297 292 286 270 245 214 197 192 187 182 181
281 285 287 285 284 288 292 294 296 299 302 303 303 305 305 304 302 303 303 304 304 305 306 306 308 310 309 306 304 303 303 304 304 301 292 282 260 226 197 186 179 179 177 175
281 282 283 284 285 286 288 291 294 297 300 301 303 305 306 306 306 307 307 306 307 306 307 307 308 308 306 304 303 303 305 305 305 301 292 272 233 197 181 172 171 167 165 163
Height
1519 1516 1518 1518 1515 1512 1512 1504 1498 1482 1477 1470 1471 1475 1476 1475 1473 1471 1468 1465 1462 1458 1454 1450 1446 1441 1437 1432 1428 1423 1419 1414 1410 1406 1402 1397 1393 1389 1386 1383 1380 1379 1378 1377
1520 1516 1515 1513 1505 1500 1496 1493 1488 1481 1476 1474 1477 1477 1476 1474 1471 1468 1466 1463 1459 1455 1451 1446 1441 1436 1431 1426 1422 1417 1412 1407 1403 1398 1393 1389 1384 1380 1376 1372 1370 1368 1367 1367
1513 1512 1515 1504 1489 1486 1485 1481 1480 1476 1473 1476 1476 1476 1474 1471 1469 1466 1463 1460 1455 1451 1446 1441 1436 1430 1425 1420 1415 1409 1404 1400 1395 1390 1385 1380 1375 1370 1366 1363 1360 1357 1356 1356
1517 1516 1514 1483 1480 1481 1479 1476 1475 1475 1476 1477 1476 1475 1472 1468 1465 1463 1459 1455 1450 1445 1440 1435 1430 1424 1419 1413 1408 1402 1397 1392 1387 1381 1376 1371 1366 1361 1357 1353 1350 1348 1346 1346
1520 1508 1491 1480 1479 1479 1479 1474 1473 1474 1475 1475 1473 1469 1466 1464 1462 1459 1455 1449 1444 1439 1434 1428 1423 1417 1411 1406 1400 1395 1389 1384 1378 1373 1367 1362 1357 1352 1348 1344 1341 1338 1337 1336
1515 1516 1497 1474 1479 1479 1480 1473 1473 1473 1472 1470 1468 1464 1460 1460 1457 1452 1448 1443 1438 1433 1428 1422 1417 1410 1404 1398 1392 1386 1381 1375 1370 1365 1359 1353 1348 1344 1339 1335 1332 1330 1328 1327
1509 1506 1485 1475 1478 1479 1478 1469 1472 1470 1469 1467 1465 1462 1457 1454 1450 1446 1442 1437 1432 1427 1421 1416 1409 1403 1396 1390 1385 1379 1373 1367 1362 1357 1351 1346 1340 1335 1331 1327 1324 1321 1320 1319
1502 1501 1487 1473 1476 1474 1469 1469 1469 1467 1465 1462 1459 1455 1451 1447 1443 1440 1435 1431 1426 1420 1415 1409 1403 1396 1389 1383 1377 1371 1365 1359 1354 1349 1343 1338 1332 1327 1323 1319 1316 1313 1312 1311
1487 1479 1471 1472 1470 1469 1468 1466 1464 1462 1460 1457 1452 1449 1445 1442 1438 1434 1430 1425 1419 1413 1407 1401 1396 1390 1382 1376 1370 1363 1357 1351 1346 1341 1335 1330 1325 1320 1315 1311 1308 1306 1304 1303
1479 1469 1469 1468 1467 1466 1465 1462 1459 1457 1454 1450 1446 1443 1440 1436 1432 1428 1424 1418 1412 1406 1399 1393 1388 1382 1376 1369 1362 1356 1349 1344 1338 1333 1327 1322 1317 1313 1308 1304 1301 1298 1297 1296
1470 1465 1464 1462 1463 1461 1459 1456 1453 1450 1447 1444 1440 1437 1434 1431 1427 1423 1417 1411 1406 1399 1392 1385 1379 1374 1368 1362 1355 1348 1342 1336 1331 1325 1320 1314 1310 1305 1301 1297 1294 1292 1290 1290
1460 1459 1459 1455 1458 1456 1453 1450 1447 1444 1440 1438 1435 1433 1430 1426 1422 1416 1410 1404 1398 1391 1384 1378 1372 1365 1360 1354 1348 1341 1334 1329 1323 1318 1313 1307 1302 1297 1293 1290 1286 1284 1283 1283
1459 1457 1455 1452 1451 1449 1447 1444 1441 1438 1436 1434 1431 1429 1425 1420 1415 1410 1403 1397 1390 1383 1377 1370 1363 1357 1352 1346 1340 1334 1328 1322 1316 1311 1306 1300 1295 1290 1285 1282 1279 1277 1276 1276
1457 1454 1449 1447 1445 1443 1441 1438 1436 1434 1432 1430 1427 1424 1419 1414 1408 1403 1396 1390 1383 1376 1369 1363 1356 1350 1345 1339 1333 1327 1321 1316 1310 1304 1299 1294 1289 1284 1279 1275 1272 1270 1269 1269
1452 1450 1446 1442 1440 1438 1436 1434 1432 1430 1428 1425 1422 1418 1413 1407 1400 1394 1388 1382 1375 1368 1362 1355 1349 1343 1338 1332 1326 1320 1314 1308 1303 1298 1292 1287 1282 1277 1273 1270 1267 1264 1263 1263
1446 1443 1440 1438 1436 1434 1432 1431 1429 1427 1424 1420 1416 1411 1406 1399 1392 1386 1380 1374 1367 1360 1354 1348 1341 1336 1330 1324 1318 1312 1306 1301 1296 1291 1285 1280 1275 1271 1267 1264 1261 1259 1258 1259
1441 1439 1437 1435 1432 1431 1429 1428 1425 1422 1418 1414 1409 1403 1397 1390 1384 1378 1373 1367 1360 1353 1347 1340 1334 1328 1323 1317 1311 1305 1299 1294 1289 1284 1279 1274 1269 1265 1261 1258 1256 1255 1254 1254
1438 1437 1435 1433 1431 1428 1426 1424 1420 1416 1412 1407 1401 1395 1389 1383 1376 1369 1363 1357 1350 1344 1339 1334 1327 1321 1315 1310 1304 1298 1292 1287 1282 1277 1272 1267 1263 1259 1256 1253 1251 1250 1250 1250
1436 1435 1433 1431 1428 1425 1422 1418 1414 1409 1404 1399 1393 1387 1381 1375 1368 1362 1355 1348 1342 1335 1329 1325 1319 1313 1307 1302 1297 1291 1286 1280 1275 1270 1265 1261 1257 1253 1250 1248 1247 1246 1246 1247
1435 1432 1430 1427 1424 1420 1416 1411 1407 1402 1397 1391 1385 1378 1372 1366 1361 1354 1347 1341 1335 1330 1323 1317 1311 1305 1300 1295 1290 1285 1279 1274 1269 1264 1259 1255 1251 1248 1246 1244 1243 1242 1243 1244
1430 1428 1424 1421 1417 1413 1409 1404 1399 1393 1388 1383 1377 1370 1363 1358 1352 1346 1339 1332 1327 1322 1316 1310 1304 1299 1294 1288 1283 1278 1273 1268 1263 1258 1254 1250 1246 1243 1241 1240 1239 1239 1240 1241
1425 1421 1418 1414 1409 1405 1401 1396 1391 1385 1379 1374 1368 1362 1356 1349 1344 1338 1332 1327 1319 1315 1309 1303 1297 1292 1288 1283 1277 1272 1267 1262 1257 1253 1248 1245 1242 1239 1237 1237 1236 1237 1237 1239
1418 1414 1410 1406 1402 1396 1391 1387 1382 1377 1371 1366 1360 1354 1348 1343 1337 1330 1323 1318 1313 1307 1302 1296 1291 1286 1281 1276 1271 1265 1260 1256 1251 1247 1244 1240 1238 1236 1234 1234 1234 1235 1236 1237
1410 1406 1402 1398 1393 1387 1382 1378 1374 1369 1363 1358 1352 1347 1341 1334 1328 1324 1318 1311 1306 1300 1295 1290 1285 1280 1275 1270 1265 1260 1255 1250 1246 1243 1239 1237 1234 1233 1232 1232 1232 1233 1234 1236
1401 1397 1392 1388 1384 1379 1374 1369 1364 1359 1354 1349 1344 1339 1334 1329 1322 1315 1310 1304 1299 1294 1288 1283 1279 1274 1269 1264 1259 1255 1250 1246 1242 1239 1236 1233 1232 1231 1230 1230 1231 1232 1233 1235
1392 1388 1384 1380 1376 1372 1367 1362 1357 1352 1347 1341 1335 1331 1326 1321 1315 1309 1304 1298 1293 1288 1283 1278 1273 1268 1264 1259 1255 1250 1246 1241 1238 1235 1233 1231 1230 1229 1229 1230 1231 1232 1233 1235
1382 1378 1375 1371 1368 1364 1360 1355 1350 1345 1340 1335 1329 1323 1318 1313 1308 1303 1298 1292 1287 1282 1277 1273 1268 1264 1259 1255 1250 1246 1242 1238 1235 1232 1231 1229 1229 1229 1229 1230 1231 1232 1233 1236